Voltar ao catálogo

ATLAS 5 CENTAUR DEB

AtivoHEO
NORAD 43967·DEBRIS·🇺🇸 United States

Lançado Sep 17, 2014 de Cape Canaveral Space Force Station

Loading…

Próximas Passagens (próximas 24 horas)

TLE

AtualizadoSource: Space-Track

Época: Sep 12, 2026, 19:21 UTC

1 43967U 14055W   26255.80674096 -.00000112  00000-0  00000-0 0  9999
2 43967  20.4004 125.8661 4989751 195.3453 141.1636  1.82855645 53603

Acompanhe ATLAS 5 CENTAUR DEB em tempo real com AllMySat

Download on the App Store